星链-6311 (STARLINK-6311 )

导读 | 豆包AI

STARLINK-6311是美国太空探索技术公司(SpaceX)星链(Starlink)互联网星座项目中的一颗低轨卫星,于2023年5月14日发射升空。作为星链星座的组成部分,它旨在为全球尤其是偏远欠发达区域提供高速、低延迟的宽带互联网接入服务,助力提升全球网络覆盖范围,推动卫星互联网的规模化部署与普及应用。

基本信息
目录编号:
56537
目录名称:
STARLINK-6311
国际标识:
2023-065AL
轨道中心:
EARTH
卫星名称:
星链-6311
卫星全名:
星链-6311 (STARLINK-6311 )
卫星状态:
在轨 (已飞行1082 天)
发射日期:
2023-05-14 UTC
国别 :
美国 (US)
星等 :
--
轨道信息
数据来源 国际轨道数据
星历时间: 2026-04-30T04:40:48+0800
10小时前
查看轨道信息
半长轴: 6863.698km
偏心率: 0.0000946
轨道倾角: 43.002°
近地点辐角 250.461°
升交点赤经 297.535°
平近点角 109.614°
近地点: 484.911km
远地点: 486.211km
周期: 94.319分钟
每日圈数: 15.267417
详细信息
固有亮度:
5
最大亮度:
2.5
卫星平台:
Starlink v1.5
覆盖范围:
全球
运营商:
太空探索技术公司
运营商所在国:
美国
制造商(研发单位):
太空探索技术公司
制造商所在国:
美国
使用方式:
暂无
卫星简介
星链(Starlink)计划是由太空探索技术公司(SpaceX)提出的一个巨型低轨卫星互联网星座项目,计划在2019年至2024年间在太空搭建由约1.2万颗卫星组成的“星链”网络,其中1584颗将部署在地球上空550千米处的近地轨道,并从2020年开始工作。该卫星仍在工作。
2D轨道图
3D轨道图
轨道高度分析图
轨道倾角分析图
轨道综合分析图
查看轨道综合分析图